15min,AgWx,beryljct,423,03NOV2020:00:00:00,44.8,12.77,43.1,43.3,45.2,46.8,43.3,63,68,60,0.630,33.4,34.3,32.8,5.13,3.4,295,17,5.2,0.00012,0.00018,46.0,48.2,9,0,.,.,4.24,0.00,0.00
15min,AgWx,beryljct,423,03NOV2020:00:15:00,44.5,12.74,45.3,44.1,42.6,44.1,41.8,66,67,65,0.661,32.1,34.0,31.4,5.305,4.3,316,7.3,5.5,0.00013,0.00018,46.0,48.2,8,0,.,.,4.24,0.00,0.00
15min,AgWx,beryljct,423,03NOV2020:00:30:00,44.5,12.74,46.2,46.4,46.2,47.5,44.2,66,68,63,0.680,35.3,36.3,34.1,4.034,5.9,333,15,7.6,0.00019,0.00025,45.9,48.2,9,0,.,.,4.24,0.00,0.00
15min,AgWx,beryljct,423,03NOV2020:00:45:00,44.9,12.72,48.7,47.7,46.1,47.7,45.5,66,68,64,0.752,35.3,37.2,34.6,10,6.4,336,19,10.1,0.00020,0.00026,45.9,48.2,9,0,.,.,4.24,0.00,0.00
15min,AgWx,beryljct,423,03NOV2020:01:00:00,45.7,12.71,43.7,45.5,47.8,49.6,44.4,65,69,58,0.684,36.5,37.8,32.4,3.376,5.8,240,76,10.5,0.00021,0.00028,45.8,48.2,9,0,.,.,4.24,0.00,0.00
15min,AgWx,beryljct,423,03NOV2020:01:15:00,45.2,12.7,42.6,41.6,42.9,45.2,40.9,71,76,66,0.674,34.3,35.2,32.7,0,3.1,83,52,7.1,0.00007,0.00010,45.8,48.2,9,0,.,.,4.25,0.00,0.00
15min,AgWx,beryljct,423,03NOV2020:01:30:00,44.2,12.69,43.6,42.9,42.9,43.5,41.8,72,75,69,0.676,34.3,35.1,33.7,2.74,0.6,288,48,2.7,-0.00006,-0.00008,45.7,48.2,9,0,.,.,4.24,0.00,0.00
15min,AgWx,beryljct,423,03NOV2020:01:45:00,43.4,12.67,40.5,39.8,42.5,44.2,39.8,71,77,67,0.602,33.9,35.6,31.4,1.381,2.9,221,44,3.7,0.00006,0.00009,45.6,48.2,8,0,.,.,4.24,0.00,0.00
15min,AgWx,beryljct,423,03NOV2020:02:00:00,42.4,12.67,39.1,38.6,39.6,41.8,37.6,71,75,68,0.573,31.0,34.1,29.0,3.157,2.4,169,27,3.7,0.00004,0.00006,45.6,48.1,9,0,.,.,4.25,0.00,0.00
15min,AgWx,beryljct,423,03NOV2020:02:15:00,41.3,12.66,39.2,39.4,39.7,41.1,38.1,72,76,68,0.596,31.6,33.2,30.2,4.823,2.0,170,21,4.8,0.00002,0.00003,45.5,48.1,8,0,.,.,4.25,0.00,0.00
15min,AgWx,beryljct,423,03NOV2020:02:30:00,40.4,12.66,39.5,38.9,38.3,39.4,37.1,75,78,73,0.592,31.1,31.8,30.1,1.951,2.4,117,15,5.2,0.00002,0.00004,45.4,48.1,9,0,.,.,4.25,0.00,0.00
15min,AgWx,beryljct,423,03NOV2020:02:45:00,39.4,12.66,36.0,34.8,36.4,39.1,34.6,78,81,70,0.557,30.1,31.4,28.1,2.148,2.0,321,64,4.8,-0.00000,0.00001,45.3,48.1,9,0,.,.,4.25,0.00,0.00
15min,AgWx,beryljct,423,03NOV2020:03:00:00,38.5,12.65,34.3,33.9,34.9,36.1,33.3,78,82,75,0.515,28.9,30.3,27.1,3.047,2.2,333,39,4.2,0.00000,0.00001,45.2,48.1,8,0,.,.,4.25,0.00,0.00
15min,AgWx,beryljct,423,03NOV2020:03:15:00,37.6,12.64,33.8,33.4,34.1,34.6,33.2,76,81,75,0.520,27.5,28.1,27.0,2.587,2.0,359,62,5.1,0.00000,0.00001,45.1,48.0,8,0,.,.,4.25,0.00,0.00
15min,AgWx,beryljct,423,03NOV2020:03:30:00,36.9,12.64,34.2,34.0,33.3,35.1,31.8,82,85,78,0.524,28.3,29.5,27.0,0,1.8,281,68,3.6,-0.00002,-0.00002,44.9,48.0,9,0,.,.,4.25,0.00,0.00
15min,AgWx,beryljct,423,03NOV2020:03:45:00,36.3,12.64,33.9,34.4,34.3,35.6,33.5,81,84,77,0.528,29.0,30.4,28.0,4.406,2.1,214,42,4.4,-0.00001,-0.00000,44.8,48.0,8,0,.,.,4.25,0.00,0.00
15min,AgWx,beryljct,423,03NOV2020:04:00:00,35.9,12.63,33.1,32.6,33.2,34.3,32.5,81,84,79,0.503,28.1,29.1,26.8,3.99,3.7,158,26,5.8,0.00003,0.00004,44.7,48.0,9,0,.,.,4.25,0.00,0.00
15min,AgWx,beryljct,423,03NOV2020:04:15:00,35.7,12.63,37.3,36.6,34.1,36.7,32.6,81,84,76,0.556,29.0,30.9,27.4,4.889,3.7,180,21,6.0,0.00003,0.00004,44.5,47.9,8,0,.,.,4.25,0.00,0.00
15min,AgWx,beryljct,423,03NOV2020:04:30:00,36.1,12.63,35.5,36.0,37.5,38.9,36.0,77,81,75,0.559,30.8,31.9,29.5,3.99,3.7,170,10,5.6,0.00005,0.00007,44.4,47.9,8,0,.,.,4.25,0.01,0.00
15min,AgWx,beryljct,423,03NOV2020:04:45:00,36.5,12.63,38.7,37.9,36.9,38.5,35.3,81,83,78,0.610,31.5,32.7,29.8,3.442,3.5,156,13,6.1,0.00003,0.00004,44.3,47.9,9,0,.,.,4.25,0.00,0.00
15min,AgWx,beryljct,423,03NOV2020:05:00:00,37.2,12.61,38.5,37.6,38.2,40.6,36.9,79,82,74,0.587,32.1,34.3,30.9,5.196,5.3,148,12,6.8,0.00007,0.00010,44.2,47.8,8,0,.,.,4.25,0.00,0.00
15min,AgWx,beryljct,423,03NOV2020:05:15:00,37.9,12.6,38.0,37.4,37.3,38.7,36.3,77,81,74,0.567,30.6,32.5,29.7,5.59,5.4,163,13,8.2,0.00008,0.00011,44.0,47.8,9,0,.,.,4.25,0.00,0.00
15min,AgWx,beryljct,423,03NOV2020:05:30:00,38.2,12.6,39.7,39.7,38.9,40.0,37.4,75,77,73,0.606,31.6,32.6,30.2,3.223,4.1,179,6.4,6.5,0.00007,0.00010,44.0,47.8,9,0,.,.,4.25,0.00,0.00
15min,AgWx,beryljct,423,03NOV2020:05:45:00,38.4,12.61,40.5,39.1,38.3,39.9,36.7,78,84,73,0.641,32.1,33.5,31.0,4.932,3.7,136,21,6.6,0.00005,0.00007,43.9,47.7,9,0,.,.,4.25,0.00,0.00
15min,AgWx,beryljct,423,03NOV2020:06:00:00,38.5,12.61,37.6,37.3,37.8,39.7,36.8,80,81,76,0.601,32.0,33.5,31.1,2.718,3.2,272,59,6.2,0.00003,0.00004,43.8,47.7,9,0,.,.,4.25,0.00,0.00
15min,AgWx,beryljct,423,03NOV2020:06:15:00,38.5,12.61,37.1,36.9,37.7,38.4,36.9,78,80,77,0.590,31.5,32.1,30.9,0.351,1.5,1.1,42,2.8,-0.00002,-0.00002,43.8,47.7,9,0,.,.,4.25,0.00,0.00
15min,AgWx,beryljct,423,03NOV2020:06:30:00,38.5,12.6,37.1,36.6,37.0,37.4,36.6,78,80,76,0.573,30.7,31.5,30.3,1.271,1.3,2.7,17,2.8,0.00006,0.00011,43.7,47.6,9,0,.,.,4.25,0.00,0.00
15min,AgWx,beryljct,423,03NOV2020:06:45:00,38.3,12.61,35.9,35.9,36.4,36.7,35.9,77,78,76,0.550,29.9,30.4,29.4,0.943,0.6,357,5.7,1.8,0.00004,0.00006,43.7,47.6,9,0,.,.,4.25,0.00,0.00
15min,AgWx,beryljct,423,03NOV2020:07:00:00,37.7,12.59,36.5,36.4,36.0,36.4,35.7,78,80,76,0.551,29.7,30.3,29.4,2.696,1.0,298,21,2.7,0.00005,0.00009,43.6,47.6,9,1,.,.,4.25,0.00,0.00
15min,AgWx,beryljct,423,03NOV2020:07:15:00,37.0,12.61,34.1,34.2,34.7,36.3,34.1,79,83,75,0.550,28.9,29.6,28.1,1.929,1.7,345,30,2.9,0.00010,0.00015,43.6,47.5,8,6,.,.,4.25,0.00,0.00
15min,AgWx,beryljct,423,03NOV2020:07:30:00,36.3,12.63,33.2,32.8,33.4,34.2,32.6,84,85,82,0.533,29.0,30.3,28.2,1.556,1.0,322,44,2.2,0.00010,0.00012,43.5,47.5,8,14,.,.,4.25,0.00,0.00
15min,AgWx,beryljct,423,03NOV2020:07:45:00,35.7,12.66,34.2,33.3,33.4,34.7,32.6,83,85,81,0.536,28.9,30.2,27.5,3.003,1.6,198,30,4.6,0.00016,0.00021,43.5,47.4,9,26,.,.,4.25,0.00,0.00
15min,AgWx,beryljct,423,03NOV2020:08:00:00,35.4,12.76,35.2,34.3,33.8,34.3,33.3,81,83,79,0.542,28.6,29.2,28.2,3.179,1.7,204,21,3.3,0.00029,0.00035,43.4,47.4,9,54,.,.,4.25,0.00,0.00
15min,AgWx,beryljct,423,03NOV2020:08:15:00,36.1,13.13,38.3,38.0,36.3,38.0,34.4,78,81,76,0.592,30.2,31.3,29.1,2.938,2.5,169,8.0,3.9,0.00057,0.00067,43.3,47.4,8,129,.,.,4.25,0.00,0.00
15min,AgWx,beryljct,423,03NOV2020:08:30:00,37.5,13.13,38.8,38.5,38.3,38.6,38.0,76,78,75,0.613,31.6,32.2,30.9,0,1.7,136,11,3.1,0.00052,0.00061,43.2,47.3,9,95,.,.,4.25,0.00,0.00
15min,AgWx,beryljct,423,03NOV2020:08:45:00,38.6,13.35,41.2,40.2,39.1,40.2,38.5,78,79,75,0.634,32.7,33.4,31.9,0,0.9,54,34,2.6,0.00060,0.00067,43.2,47.3,9,123,.,.,4.24,0.00,0.00
15min,AgWx,beryljct,423,03NOV2020:09:00:00,40.3,13.77,42.0,41.6,41.1,41.7,40.3,74,77,71,0.644,33.5,34.3,32.9,3.42,3.3,82,14,4.7,0.00099,0.00117,43.2,47.3,9,215,.,.,4.24,0.00,0.00
15min,AgWx,beryljct,423,03NOV2020:09:15:00,42.2,13.57,44.0,43.7,42.7,43.8,41.6,70,73,66,0.641,33.6,34.1,33.2,0,1.9,44,16,4.0,0.00088,0.00102,43.2,47.2,9,165,.,.,4.24,0.00,0.00
15min,AgWx,beryljct,423,03NOV2020:09:30:00,43.7,13.98,45.7,44.7,44.0,44.7,43.6,68,70,66,0.682,34.2,35.0,33.2,0,1.2,149,18,2.5,0.00106,0.00119,43.2,47.2,9,211,.,.,4.24,0.00,0.00
15min,AgWx,beryljct,423,03NOV2020:09:45:00,45.9,13.96,46.9,47.0,46.0,47.1,44.7,67,68,66,0.721,35.7,37.2,34.8,1.206,1.1,90,23,2.4,0.00132,0.00146,43.3,47.1,9,262,.,.,4.24,0.00,0.00
15min,AgWx,beryljct,423,03NOV2020:10:00:00,47.7,13.76,50.2,49.7,47.9,49.7,46.8,64,67,60,0.736,36.4,36.8,36.0,0.921,0.7,41,27,2.1,0.00111,0.00123,43.4,47.1,8,201,.,.,4.24,0.00,0.00
15min,AgWx,beryljct,423,03NOV2020:10:15:00,49.5,14.35,53.1,52.7,51.4,52.7,49.7,60,62,56,0.776,37.8,39.2,36.6,1.491,1.6,315,66,5.0,0.00149,0.00170,43.6,47.1,8,260,.,.,4.24,0.00,0.00
15min,AgWx,beryljct,423,03NOV2020:10:30:00,51.5,14.43,53.2,53.1,52.8,53.2,52.4,55,57,54,0.747,36.9,37.9,36.4,1.841,2.1,350,27,3.5,0.00166,0.00194,43.7,47.0,8,277,.,.,4.24,0.00,0.00
15min,AgWx,beryljct,423,03NOV2020:10:45:00,53.3,14.39,53.7,53.6,53.4,53.9,53.0,53,55,52,0.740,36.9,38.1,36.4,1.798,2.1,6.8,19,4.1,0.00182,0.00211,43.9,47.0,9,308,.,.,4.23,0.00,0.00
15min,AgWx,beryljct,423,03NOV2020:11:00:00,55.2,14.34,57.3,55.8,54.7,56.2,53.6,52,54,50,0.795,37.6,39.6,36.7,3.376,2.8,32,28,5.2,0.00248,0.00288,44.2,47.0,8,444,.,.,4.23,0.00,0.00
15min,AgWx,beryljct,423,03NOV2020:11:15:00,58.3,14.28,57.1,57.0,56.6,57.6,55.8,50,53,48,0.782,38.0,39.8,37.1,3.88,3.6,42,15,6.1,0.00320,0.00373,44.5,47.0,9,575,.,.,4.23,0.00,0.00
15min,AgWx,beryljct,423,03NOV2020:11:30:00,60.8,14.24,59.0,59.3,58.6,59.6,57.0,46,50,44,0.766,38.0,39.2,37.1,3.924,4.9,23,14,7.1,0.00336,0.00404,44.8,46.9,8,571,.,.,4.22,0.00,0.00
15min,AgWx,beryljct,423,03NOV2020:11:45:00,62.6,14.2,61.7,61.0,60.2,61.2,59.0,43,46,41,0.780,37.9,39.5,37.0,3.113,3.8,15,24,5.5,0.00309,0.00368,45.2,46.9,8,504,.,.,4.22,0.00,0.00
15min,AgWx,beryljct,423,03NOV2020:12:00:00,63.6,14.21,61.3,61.3,61.1,61.3,60.8,42,44,40,0.775,37.8,39.1,36.8,2.872,2.8,10,22,4.9,0.00184,0.00229,45.7,46.9,9,242,.,.,4.22,0.00,0.00
15min,AgWx,beryljct,423,03NOV2020:12:15:00,64.3,14.2,62.2,62.7,62.2,63.6,61.3,41,44,39,0.767,38.4,39.7,37.4,4.341,3.0,18,22,5.2,0.00321,0.00376,46.1,46.9,9,535,.,.,4.22,0.00,0.00
15min,AgWx,beryljct,423,03NOV2020:12:30:00,66.7,13.74,63.9,64.1,63.7,64.8,62.6,38,41,36,0.740,37.7,39.5,36.8,2.302,2.2,10,35,5.0,0.00435,0.00492,46.6,46.9,8,718,.,.,4.21,0.00,0.00
15min,AgWx,beryljct,423,03NOV2020:12:45:00,69.5,13.67,67.3,66.5,65.4,66.5,64.1,36,38,34,0.786,37.6,39.7,36.5,0.877,2.0,54,36,5.3,0.00418,0.00473,47.1,46.9,9,681,.,.,4.20,0.00,0.00
15min,AgWx,beryljct,423,03NOV2020:13:00:00,72.1,13.74,68.8,67.8,67.8,69.1,66.6,33,35,31,0.784,37.8,40.0,36.4,3.244,1.6,40,61,5.6,0.00393,0.00443,47.6,47.0,9,637,.,.,4.20,0.00,0.00
15min,AgWx,beryljct,423,03NOV2020:13:15:00,73.4,13.64,68.5,68.2,68.4,69.0,67.7,33,35,31,0.805,38.1,40.2,36.0,3.617,2.5,124,47,6.1,0.00336,0.00394,48.2,47.0,9,535,.,.,4.20,0.00,0.00
15min,AgWx,beryljct,423,03NOV2020:13:30:00,74.0,13.58,70.8,70.3,69.6,70.3,68.2,33,36,28,0.901,38.9,41.9,35.9,3.771,5.2,116,32,7.9,0.00405,0.00503,48.8,47.1,9,585,.,.,4.20,0.00,0.00
15min,AgWx,beryljct,423,03NOV2020:13:45:00,74.5,13.63,72.3,71.8,70.9,72.5,70.0,29,35,27,0.705,37.1,41.5,35.1,6.927,5.7,143,22,11.6,0.00408,0.00517,49.5,47.1,9,566,.,.,4.20,0.00,0.00
15min,AgWx,beryljct,423,03NOV2020:14:00:00,75.2,13.58,72.8,72.3,72.2,73.4,71.1,26,29,23,0.658,35.0,38.0,33.4,8.64,7.7,169,29,18.9,0.00423,0.00565,50.0,47.2,9,534,.,.,4.20,0.00,0.00
15min,AgWx,beryljct,423,03NOV2020:14:15:00,75.5,13.59,73.5,72.4,72.4,72.8,71.8,24,25,23,0.652,33.7,35.1,32.6,6.248,10.2,193,11,16.2,0.00443,0.00619,50.6,47.3,9,511,.,.,4.20,0.00,0.00
15min,AgWx,beryljct,423,03NOV2020:14:30:00,75.8,13.58,72.4,72.6,72.4,73.4,71.7,24,25,23,0.665,34.0,35.3,32.7,12.87,10.8,173,23,14.2,0.00448,0.00629,51.2,47.4,9,508,.,.,4.20,0.00,0.00
15min,AgWx,beryljct,423,03NOV2020:14:45:00,75.9,13.54,73.1,72.7,72.7,73.5,72.2,24,25,23,0.650,33.6,34.9,32.3,6.05,8.3,203,13,12.7,0.00404,0.00557,51.8,47.4,9,480,.,.,4.20,0.00,0.00
15min,AgWx,beryljct,423,03NOV2020:15:00:00,75.8,13.37,70.7,71.3,72.3,73.2,71.3,24,25,23,0.614,33.4,35.0,32.1,6.927,9.5,206,14,16.1,0.00327,0.00488,52.2,47.6,9,327,.,.,4.20,0.00,0.00
15min,AgWx,beryljct,423,03NOV2020:15:15:00,75.0,13.58,72.3,72.4,71.8,73.0,70.5,23,25,22,0.620,32.5,33.7,31.4,8,9.7,192,16,15.9,0.00337,0.00500,52.7,47.7,9,349,.,.,4.21,0.00,0.00
15min,AgWx,beryljct,423,03NOV2020:15:30:00,75.3,13.53,72.2,72.8,72.7,73.1,72.3,23,25,22,0.632,32.7,34.5,31.1,10.9,9.0,203,14,17.1,0.00370,0.00530,53.0,47.8,9,408,.,.,4.20,0.00,0.00
15min,AgWx,beryljct,423,03NOV2020:15:45:00,75.5,13.52,72.3,72.4,72.6,72.8,72.3,24,25,22,0.636,33.2,35.2,31.5,6.577,8.0,222,12,11.9,0.00327,0.00472,53.3,47.9,9,365,.,.,4.20,0.00,0.00
15min,AgWx,beryljct,423,03NOV2020:16:00:00,75.5,13.53,72.0,72.3,72.1,72.6,71.6,24,25,23,0.642,33.1,34.7,31.8,8.57,7.3,215,16,11.1,0.00274,0.00404,53.6,48.1,9,304,.,.,4.21,0.00,0.00
15min,AgWx,beryljct,423,03NOV2020:16:15:00,75.1,13.58,70.9,71.0,71.4,72.3,70.9,24,25,23,0.646,32.5,33.8,31.4,7.103,9.2,208,13,14.8,0.00268,0.00421,53.8,48.2,9,247,.,.,4.20,0.00,0.00
15min,AgWx,beryljct,423,03NOV2020:16:30:00,74.4,13.57,70.5,70.6,70.8,71.3,70.3,24,26,23,0.616,32.5,34.3,31.4,8.48,6.9,181,22,10.7,0.00199,0.00318,54.1,48.3,9,201,.,.,4.21,0.00,0.00
15min,AgWx,beryljct,423,03NOV2020:16:45:00,73.4,13.62,69.5,69.1,69.8,70.7,69.1,26,27,24,0.633,33.1,34.1,31.7,7.98,6.2,210,14,9.0,0.00101,0.00136,54.2,48.5,9,151,.,.,4.21,0.00,0.00
15min,AgWx,beryljct,423,03NOV2020:17:00:00,72.1,13.63,67.2,67.8,68.6,69.6,67.5,26,27,25,0.632,32.5,33.3,31.6,7.168,7.2,221,8.2,9.8,0.00095,0.00126,54.3,48.7,9,100,.,.,4.21,0.00,0.00
15min,AgWx,beryljct,423,03NOV2020:17:15:00,70.2,13.23,66.0,66.1,66.6,67.7,65.8,28,29,27,0.622,32.8,33.3,32.1,6.292,7.3,226,6.2,9.5,0.00079,0.00106,54.4,48.8,9,56,.,.,4.22,0.00,0.00
15min,AgWx,beryljct,423,03NOV2020:17:30:00,67.9,13.1,63.8,64.4,64.8,66.1,64.1,30,31,28,0.634,32.6,33.2,32.1,6.357,6.8,226,5.3,7.8,0.00061,0.00084,54.4,49.0,9,11,.,.,4.21,0.00,0.00
15min,AgWx,beryljct,423,03NOV2020:17:45:00,65.6,13.06,59.3,60.1,62.7,64.4,60.1,32,35,31,0.590,32.6,33.2,30.9,6.16,6.5,264,39,8.7,0.00053,0.00073,54.3,49.1,9,4,.,.,4.22,0.00,0.00
15min,AgWx,beryljct,423,03NOV2020:18:00:00,62.8,13.05,57.8,57.6,58.0,60.0,56.1,36,39,34,0.586,31.1,31.6,30.6,6.029,4.6,304,8.4,6.4,0.00028,0.00041,54.2,49.3,9,0,.,.,4.22,0.00,0.00
15min,AgWx,beryljct,423,03NOV2020:18:15:00,60.3,13.02,52.8,54.0,57.5,60.0,54.0,36,42,33,0.586,30.8,31.6,29.9,1.556,2.9,290,41,6.0,0.00009,0.00017,54.1,49.4,8,0,.,.,4.22,0.00,0.00
15min,AgWx,beryljct,423,03NOV2020:18:30:00,58.0,13,55.2,56.6,55.0,57.4,52.4,41,44,37,0.590,31.5,31.9,30.8,4.757,3.0,290,33,5.8,0.00007,0.00014,53.9,49.6,9,0,.,.,4.22,0.00,0.00
15min,AgWx,beryljct,423,03NOV2020:18:45:00,56.5,13,55.9,55.3,55.8,56.6,53.9,38,41,37,0.572,30.7,31.4,30.2,0,1.2,16,12,4.4,-0.00016,-0.00020,53.8,49.7,9,0,.,.,4.22,0.00,0.00
15min,AgWx,beryljct,423,03NOV2020:19:00:00,55.0,12.99,48.5,52.3,54.0,55.7,52.2,40,43,38,0.546,30.4,31.0,29.2,5.48,1.4,279,73,5.7,-0.00015,-0.00019,53.5,49.8,9,0,.,.,4.23,0.01,0.00
15min,AgWx,beryljct,423,03NOV2020:19:15:00,53.3,12.98,47.9,47.9,47.5,51.8,45.9,50,54,41,0.566,29.8,30.6,28.6,1.798,2.0,199,11,5.4,-0.00007,-0.00007,53.3,49.9,9,0,.,.,4.23,0.00,0.00
15min,AgWx,beryljct,423,03NOV2020:19:30:00,51.9,12.97,51.2,50.4,49.6,52.3,47.9,48,51,43,0.590,30.7,31.5,29.0,5.283,6.1,156,20,9.7,0.00024,0.00032,53.0,50.0,9,0,.,.,4.23,0.00,0.00
15min,AgWx,beryljct,423,03NOV2020:19:45:00,51.0,12.97,51.4,50.3,49.2,50.4,48.0,47,49,46,0.575,29.8,31.2,29.1,5.174,5.7,196,6.7,7.6,0.00022,0.00031,52.8,50.1,9,0,.,.,4.23,0.00,0.00
15min,AgWx,beryljct,423,03NOV2020:20:00:00,50.4,12.96,50.1,50.0,49.2,50.8,47.6,49,53,46,0.597,31.0,31.9,30.2,1.535,3.8,206,11,5.7,0.00009,0.00015,52.5,50.2,9,0,.,.,4.23,0.00,0.00
15min,AgWx,beryljct,423,03NOV2020:20:15:00,49.8,12.95,50.6,50.1,49.8,50.9,48.8,49,51,48,0.587,31.5,32.1,30.8,4.538,1.7,267,80,5.3,-0.00011,-0.00013,52.2,50.3,9,0,.,.,4.23,0.00,0.00
15min,AgWx,beryljct,423,03NOV2020:20:30:00,49.3,12.95,46.0,44.6,46.7,50.0,43.5,50,56,44,0.537,28.8,30.9,27.8,0.855,2.6,340,9.4,5.7,-0.00000,0.00003,52.0,50.4,8,0,.,.,4.23,0.00,0.00
15min,AgWx,beryljct,423,03NOV2020:20:45:00,48.3,12.94,46.9,48.3,47.2,48.8,44.7,48,53,46,0.538,28.7,29.8,27.8,0,0.3,343,0.8,1.5,-0.00029,-0.00044,51.7,50.4,9,0,.,.,4.24,0.00,0.00
15min,AgWx,beryljct,423,03NOV2020:21:00:00,47.3,12.94,41.2,41.5,44.2,48.2,41.3,53,59,47,0.526,28.2,28.8,27.5,5.02,3.9,194,23,5.9,0.00006,0.00011,51.5,50.5,9,0,.,.,4.24,0.00,0.00
15min,AgWx,beryljct,423,03NOV2020:21:15:00,46.2,12.93,43.7,43.1,43.0,45.7,41.3,58,62,53,0.564,29.1,30.6,27.4,2.148,2.7,263,66,5.0,-0.00003,-0.00002,51.2,50.5,9,0,.,.,4.24,0.00,0.00
15min,AgWx,beryljct,423,03NOV2020:21:30:00,45.2,12.92,39.9,39.3,40.3,44.3,37.3,61,71,55,0.477,28.0,29.9,25.4,4.253,4.6,52,32,7.3,0.00005,0.00009,50.9,50.5,9,0,.,.,4.24,0.00,0.00
15min,AgWx,beryljct,423,03NOV2020:21:45:00,44.1,12.91,39.5,39.4,40.0,41.6,37.9,56,61,52,0.457,25.4,25.9,24.9,2.302,3.5,308,50,6.5,0.00003,0.00006,50.7,50.6,8,0,.,.,4.24,0.00,0.00
15min,AgWx,beryljct,423,03NOV2020:22:00:00,43.0,12.91,42.7,40.7,39.1,40.7,37.3,59,63,56,0.517,26.1,27.9,24.9,1.556,0.6,260,23,2.1,-0.00022,-0.00031,50.4,50.6,9,0,.,.,4.24,0.00,0.00
15min,AgWx,beryljct,423,03NOV2020:22:15:00,42.4,12.9,38.9,39.1,42.7,43.6,39.1,55,59,54,0.452,27.7,28.4,24.7,1.403,1.2,277,44,2.5,-0.00016,-0.00021,50.2,50.6,9,0,.,.,4.24,0.00,0.00
15min,AgWx,beryljct,423,03NOV2020:22:30:00,42.0,12.89,45.2,44.4,41.8,45.0,38.8,56,60,53,0.535,27.1,29.8,24.0,3.727,2.5,252,54,4.4,-0.00004,-0.00003,49.9,50.6,9,0,.,.,4.24,0.00,0.00
15min,AgWx,beryljct,423,03NOV2020:22:45:00,41.9,12.89,42.4,43.1,42.3,44.8,38.0,57,64,54,0.528,28.3,29.3,25.6,0.526,2.1,27,51,4.1,-0.00008,-0.00008,49.7,50.6,8,0,.,.,4.24,0.00,0.00
15min,AgWx,beryljct,423,03NOV2020:23:00:00,41.2,12.87,32.8,34.8,38.0,43.0,34.8,60,65,55,0.442,25.3,28.3,24.1,2.828,3.5,159,21,6.8,0.00000,0.00003,49.5,50.6,9,0,.,.,4.24,0.00,0.00
15min,AgWx,beryljct,423,03NOV2020:23:15:00,40.2,12.86,34.8,36.1,35.6,36.5,33.9,64,69,59,0.461,24.6,26.0,23.3,4.297,2.7,170,30,4.3,-0.00005,-0.00004,49.2,50.6,9,0,.,.,4.25,0.00,0.00
15min,AgWx,beryljct,423,03NOV2020:23:30:00,39.1,12.85,35.6,34.1,34.4,35.8,32.9,70,75,64,0.460,25.5,26.5,24.4,0,2.3,139,59,4.2,-0.00008,-0.00009,49.0,50.6,9,0,.,.,4.25,0.00,0.00
15min,AgWx,bigpiney,439,03NOV2020:00:00:00,22.6,12.78,23.1,21.5,19.7,21.7,18.6,60,62,50,0.231,7.9,9.7,5.6,3.157,4.8,237,16,6.4,0.00003,0.00004,38.0,40.0,44,0,0,0.0,0.13,0.00,0.00
15min,AgWx,bigpiney,439,03NOV2020:00:15:00,22.0,12.77,26.0,24.7,26.1,29.6,21.7,50,58,45,0.237,10.0,12.6,6.0,1.973,2.6,272,26,4.1,-0.00002,-0.00001,38.0,40.0,44,0,0,0.0,0.13,0.00,0.00
15min,AgWx,bigpiney,439,03NOV2020:00:30:00,21.5,12.76,20.1,19.7,21.1,25.8,18.2,57,63,50,0.224,8.1,10.3,6.1,5.086,4.5,220,15,6.8,0.00003,0.00005,37.9,40.0,44,0,0,0.0,0.13,0.00,0.00
15min,AgWx,bigpiney,439,03NOV2020:00:45:00,21.1,12.76,22.3,20.9,19.5,20.9,18.5,61,62,59,0.234,8.2,9.4,7.4,4.187,4.6,207,6.1,5.5,0.00002,0.00004,37.9,40.0,44,0,0,0.0,0.13,0.00,0.00
15min,AgWx,bigpiney,439,03NOV2020:01:00:00,20.8,12.76,21.2,20.0,20.5,22.4,17.8,59,64,55,0.231,8.4,9.4,7.1,4.341,4.6,204,13,6.0,0.00003,0.00004,37.9,40.1,44,0,0,0.0,0.13,0.00,0.00
15min,AgWx,bigpiney,439,03NOV2020:01:15:00,20.7,12.75,19.2,19.2,20.6,22.6,19.2,59,62,56,0.215,8.5,10.2,7.6,3.836,4.6,239,5.8,5.5,0.00003,0.00004,37.9,40.0,44,0,0,0.0,0.13,0.00,0.00
15min,AgWx,bigpiney,439,03NOV2020:01:30:00,20.5,12.73,20.3,19.3,18.1,19.3,16.8,63,67,59,0.214,7.6,8.3,6.8,0.417,1.8,286,35,3.7,-0.00007,-0.00008,37.9,40.0,44,0,0,0.0,0.13,0.00,0.00
15min,AgWx,bigpiney,439,03NOV2020:01:45:00,20.2,12.75,25.8,25.0,22.5,25.0,19.2,52,59,47,0.217,7.5,8.4,6.4,0,0.8,310,62,3.1,-0.00013,-0.00018,37.8,40.0,44,0,0,0.0,0.13,0.00,0.00
15min,AgWx,bigpiney,439,03NOV2020:02:00:00,20.4,12.74,23.3,22.5,24.3,25.6,22.4,48,53,47,0.219,7.6,8.6,6.1,0,1.5,122,35,5.3,-0.00008,-0.00010,37.8,40.0,44,0,0,0.0,0.13,0.00,0.00
15min,AgWx,bigpiney,439,03NOV2020:02:15:00,20.5,12.73,25.3,21.4,22.6,23.6,20.2,53,57,52,0.224,8.0,9.0,6.2,4.932,2.2,180,11,6.1,-0.00005,-0.00005,37.8,40.0,44,0,0,0.0,0.13,0.00,0.00
15min,AgWx,bigpiney,439,03NOV2020:02:30:00,20.4,12.73,22.6,26.1,24.3,26.4,21.5,51,57,48,0.234,8.8,9.9,6.7,0.921,3.0,185,16,5.9,-0.00000,0.00001,37.8,40.1,44,0,0,0.0,0.13,0.00,0.00
15min,AgWx,bigpiney,439,03NOV2020:02:45:00,20.3,12.73,27.4,26.5,25.1,26.7,23.3,50,53,48,0.234,9.1,9.8,7.5,2.17,1.9,179,12,2.7,-0.00006,-0.00006,37.7,40.1,44,0,0,0.0,0.13,0.00,0.00
15min,AgWx,bigpiney,439,03NOV2020:03:00:00,20.2,12.72,25.8,24.7,25.4,26.7,24.2,50,51,48,0.232,9.1,10.1,8.4,3.135,1.6,184,10,3.1,-0.00008,-0.00009,37.7,40.0,44,0,0,0.0,0.13,0.00,0.00
15min,AgWx,bigpiney,439,03NOV2020:03:15:00,19.9,12.72,16.5,18.4,24.3,26.2,18.4,51,56,48,0.193,8.6,9.7,5.2,5.809,3.3,201,11,5.8,0.00001,0.00003,37.7,40.0,44,0,0,0.0,0.13,0.00,0.00
15min,AgWx,bigpiney,439,03NOV2020:03:30:00,19.4,12.71,19.2,19.4,20.0,22.1,17.8,58,61,54,0.220,7.6,9.1,5.2,4.012,5.1,222,8.3,6.1,0.00004,0.00006,37.7,40.0,44,0,0,0.0,0.13,0.00,0.00
15min,AgWx,bigpiney,439,03NOV2020:03:45:00,19.3,12.71,19.6,19.2,22.9,29.2,18.6,54,63,43,0.217,8.6,11.4,5.7,1.82,2.5,245,19,6.1,-0.00003,-0.00002,37.7,40.0,44,0,0,0.0,0.13,0.00,0.00
15min,AgWx,bigpiney,439,03NOV2020:04:00:00,19.3,12.7,18.4,17.6,18.4,19.1,17.6,60,62,59,0.207,7.0,7.9,6.1,1.008,0.3,301,32,1.8,-0.00016,-0.00024,37.6,40.0,44,0,0,0.0,0.13,0.00,0.00
15min,AgWx,bigpiney,439,03NOV2020:04:15:00,19.1,12.71,18.3,17.9,17.9,18.2,17.6,62,63,61,0.210,6.9,7.3,6.6,2.214,1.3,288,20,2.6,-0.00009,-0.00012,37.6,40.0,44,0,0,0.0,0.13,0.00,0.00
15min,AgWx,bigpiney,439,03NOV2020:04:30:00,18.9,12.7,20.3,19.2,19.0,19.8,17.9,61,62,60,0.217,7.6,8.2,7.0,2.258,2.7,303,15,3.7,-0.00003,-0.00003,37.6,40.0,44,0,0,0.0,0.13,0.00,0.00
15min,AgWx,bigpiney,439,03NOV2020:04:45:00,18.8,12.7,21.7,20.9,20.4,21.3,19.3,60,61,59,0.229,8.6,9.3,7.7,1.359,1.1,287,21,2.5,-0.00011,-0.00015,37.6,40.0,44,0,0,0.0,0.13,0.00,0.00
15min,AgWx,bigpiney,439,03NOV2020:05:00:00,18.8,12.7,22.8,22.1,21.9,22.5,20.9,58,60,58,0.235,9.6,9.9,9.0,0,0.9,213,14,3.0,-0.00013,-0.00017,37.6,40.0,44,0,0,0.0,0.13,0.00,0.00
15min,AgWx,bigpiney,439,03NOV2020:05:15:00,18.9,12.68,24.1,23.4,22.4,23.4,21.8,58,58,56,0.241,9.7,10.2,9.0,0.789,1.1,281,43,2.9,-0.00012,-0.00015,37.5,40.0,44,0,0,0.0,0.13,0.00,0.00
15min,AgWx,bigpiney,439,03NOV2020:05:30:00,19.1,12.69,21.3,19.7,23.1,23.6,19.4,56,59,54,0.216,9.7,10.2,5.9,0,2.0,6.3,38,4.1,-0.00006,-0.00007,37.5,40.0,44,0,0,0.0,0.13,0.00,0.00
15min,AgWx,bigpiney,439,03NOV2020:05:45:00,19.1,12.69,17.8,17.5,18.5,20.6,17.4,64,66,59,0.218,8.2,9.2,6.7,1.71,0.8,26,60,2.8,-0.00013,-0.00018,37.5,40.0,44,0,0,0.0,0.13,0.00,0.00
15min,AgWx,bigpiney,439,03NOV2020:06:00:00,18.7,12.69,17.3,17.6,17.4,18.4,16.4,65,68,63,0.211,7.7,8.4,7.0,0.702,1.3,263,43,2.6,-0.00009,-0.00012,37.5,40.1,44,0,0,0.0,0.13,0.00,0.00
15min,AgWx,bigpiney,439,03NOV2020:06:15:00,18.3,12.68,18.1,19.2,18.7,19.9,17.4,63,65,61,0.217,8.1,8.7,7.0,1.096,0.9,289,17,2.5,-0.00012,-0.00017,37.5,40.0,44,0,0,0.0,0.13,0.00,0.00
15min,AgWx,bigpiney,439,03NOV2020:06:30:00,17.8,12.68,20.7,19.4,19.8,21.3,18.8,61,62,58,0.221,8.4,9.3,7.4,4.187,1.3,244,23,4.2,-0.00010,-0.00013,37.5,40.0,44,0,0,0.0,0.13,0.00,0.00
15min,AgWx,bigpiney,439,03NOV2020:06:45:00,17.1,12.69,13.1,15.2,17.3,20.5,15.0,64,68,59,0.199,7.0,9.7,4.9,4.297,4.6,223,7.2,6.1,0.00001,0.00002,37.4,39.9,44,1,0,0.0,0.13,0.00,0.00
15min,AgWx,bigpiney,439,03NOV2020:07:00:00,16.5,12.71,21.6,19.2,17.1,19.2,14.6,65,68,61,0.220,7.2,9.2,5.3,3.749,3.9,277,26,6.3,-0.00000,0.00001,37.4,40.0,44,5,0,0.0,0.13,0.00,0.00
15min,AgWx,bigpiney,439,03NOV2020:07:15:00,16.4,14.26,16.8,17.0,18.1,21.2,16.2,61,66,55,0.216,7.1,8.7,4.7,0.921,1.3,313,75,3.7,-0.00018,-0.00015,37.4,40.0,44,24,0,0.0,0.13,0.00,0.00
15min,AgWx,bigpiney,439,03NOV2020:07:30:00,16.5,15.02,16.9,15.7,15.3,17.8,13.4,70,75,65,0.228,7.2,8.8,5.7,4.121,3.3,210,11,5.0,-0.00003,0.00003,37.4,40.0,44,49,0,0.0,0.13,0.00,0.00
15min,AgWx,bigpiney,439,03NOV2020:07:45:00,17.0,15,22.3,22.0,18.9,22.0,15.8,68,74,60,0.243,9.9,11.1,8.9,0.789,2.9,243,26,5.5,0.00001,0.00008,37.4,40.0,44,67,0,0.0,0.13,0.00,0.00
15min,AgWx,bigpiney,439,03NOV2020:08:00:00,18.2,15.01,24.4,24.0,22.7,24.0,21.8,61,63,59,0.266,11.3,12.4,10.3,1.666,0.9,72,21,2.5,0.00006,0.00009,37.3,40.0,44,105,0,0.0,0.13,0.00,0.00
15min,AgWx,bigpiney,439,03NOV2020:08:15:00,20.4,14.99,25.9,25.7,24.7,25.7,24.0,57,62,54,0.257,11.7,13.0,11.0,1.425,1.2,16,21,2.5,0.00023,0.00030,37.3,40.0,44,148,0,0.0,0.13,0.00,0.00
15min,AgWx,bigpiney,439,03NOV2020:08:30:00,23.4,14.94,30.2,29.0,27.5,29.3,25.6,52,55,49,0.267,12.0,13.5,11.0,0.592,0.4,306,59,1.8,0.00042,0.00047,37.3,40.0,44,201,0,0.0,0.13,0.00,0.00
15min,AgWx,bigpiney,439,03NOV2020:08:45:00,26.9,14.48,31.4,30.6,30.1,31.2,29.1,49,52,47,0.288,13.2,15.2,12.2,1.622,1.9,100,20,3.6,0.00067,0.00082,37.3,39.9,44,237,0,0.0,0.13,0.00,0.00
15min,AgWx,bigpiney,439,03NOV2020:09:00:00,30.1,14.41,33.6,33.3,31.8,33.3,30.7,47,51,45,0.291,13.7,14.6,12.7,1.907,2.3,100,18,3.4,0.00090,0.00109,37.3,40.0,44,281,0,0.0,0.13,0.00,0.00